Date,TemperatureHighF,TemperatureAvgF,TemperatureLowF,DewpointHighF,DewpointAvgF,DewpointLowF,HumidityHigh,HumidityAvg,HumidityLow,PressureMaxIn,PressureMinIn,WindSpeedMaxMPH,WindSpeedAvgMPH,GustSpeedMaxMPH,PrecipitationSumIn
2014-1-1,39,33,26,23,21,17,75,60,48,0.00,40.00,9,4,18,0.00
2014-1-2,44,34,25,20,15,4,73,45,28,0.00,40.00,8,4,11,0.00
2014-1-3,42,36,28,18,11,7,48,35,22,0.00,40.00,20,11,26,0.00
2014-1-4,26,20,14,21,0,-100,95,49,37,0.00,40.00,15,8,27,0.00
2014-1-5,26,18,11,7,4,1,74,52,34,0.00,40.00,10,5,16,0.00
2014-1-6,31,23,12,9,4,0,65,45,29,0.00,40.00,9,4,10,0.00
2014-1-7,40,33,26,24,12,3,74,44,29,0.00,40.00,14,7,18,0.00
2014-1-8,34,30,26,31,26,23,100,88,73,0.00,40.00,10,4,13,0.00
2014-1-9,29,28,26,28,27,25,100,98,94,0.00,40.00,8,6,9,0.00
2014-1-10,36,33,26,25,24,20,79,69,60,0.00,40.00,18,10,22,0.00
2014-1-11,43,36,30,27,24,23,74,61,46,0.00,40.00,24,12,41,0.00
2014-1-12,30,28,25,17,15,13,63,58,50,0.00,40.00,20,11,31,0.00
2014-1-13,35,31,25,21,19,14,64,60,55,0.00,40.00,15,10,20,0.00
2014-1-14,40,32,25,22,19,16,74,61,46,0.00,40.00,7,4,13,0.00
2014-1-15,42,31,23,22,18,15,77,60,37,0.00,40.00,8,4,11,0.00
2014-1-16,40,31,25,23,13,10,56,46,29,0.00,40.00,6,2,8,0.00
2014-1-17,42,31,25,18,14,11,58,48,29,0.00,40.00,9,4,13,0.00
2014-1-18,46,33,24,19,10,-100,55,43,26,0.00,40.00,6,2,8,0.00
2014-1-19,47,37,28,16,14,7,55,40,23,0.00,40.00,9,6,13,0.00
2014-1-20,44,36,28,22,14,1,56,40,20,0.00,40.00,7,4,11,0.00
2014-1-21,46,36,27,17,13,10,53,39,25,0.00,40.00,10,3,13,0.00
2014-1-22,40,33,24,22,15,11,64,48,36,0.00,40.00,9,4,13,0.00
2014-1-23,36,28,22,18,15,8,77,58,31,0.00,40.00,15,7,21,0.00
2014-1-24,40,29,21,18,10,1,59,44,29,0.00,40.00,6,3,9,0.00
2014-1-25,40,29,21,19,6,-100,58,42,23,0.00,40.00,7,3,10,0.00
2014-1-26,40,31,24,14,10,3,62,42,20,0.00,40.00,9,5,14,0.00
2014-1-27,42,32,26,20,10,2,69,40,27,0.00,40.00,11,6,16,0.00
2014-1-28,36,32,28,20,17,11,71,55,37,0.00,40.00,8,5,11,0.00
2014-1-29,41,36,29,33,15,8,73,42,29,0.00,40.00,16,10,27,0.00
2014-1-30,32,29,26,32,29,26,104,18,100,0.00,40.00,7,4,14,0.00
2014-1-31,33,25,20,32,25,19,104,101,94,0.00,40.00,10,4,16,0.00
2014-2-1,25,20,15,20,12,-100,98,83,63,0.00,40.00,11,4,16,0.00
2014-2-2,25,21,16,19,14,11,100,76,56,0.00,40.00,15,8,26,0.00
2014-2-3,28,24,20,21,18,13,99,79,64,0.00,40.00,19,10,29,0.00
2014-2-4,24,19,10,22,11,4,100,72,56,0.00,40.00,11,6,18,0.00
2014-2-5,26,20,13,10,8,5,83,61,41,0.00,40.00,10,5,13,0.00
2014-2-6,30,26,18,28,18,7,100,72,56,0.00,40.00,15,9,32,0.00
2014-2-7,27,27,27,27,27,27,104,45,100,0.00,40.00,19,17,33,0.00
2014-2-10,35,32,27,34,32,26,99,97,93,0.00,40.00,6,3,10,0.00
2014-2-11,41,33,24,28,24,21,95,71,52,0.00,40.00,10,5,16,0.00
2014-2-12,45,36,28,34,26,22,100,69,51,0.00,40.00,14,7,20,0.00
2014-2-13,47,44,40,35,32,29,80,63,51,0.00,40.00,11,8,18,0.00
2014-2-14,48,47,45,36,34,31,64,62,52,0.00,40.00,10,7,19,0.00
2014-2-15,47,46,46,29,28,28,49,49,49,0.00,40.00,8,6,14,0.00
2014-2-16,49,40,29,30,26,23,98,64,36,0.00,40.00,19,10,36,0.00
2014-2-17,46,40,28,23,16,13,74,40,25,0.00,40.00,13,8,23,0.00
2014-2-18,45,42,35,23,18,13,55,38,30,0.00,40.00,7,4,12,0.00
2014-2-19,39,32,25,19,13,9,60,46,33,0.00,40.00,15,8,24,0.00
2014-2-20,32,27,21,12,11,7,59,49,39,0.00,40.00,11,5,17,0.00
2014-2-21,42,31,25,19,14,7,64,51,23,0.00,40.00,12,4,17,0.00
2014-2-22,43,33,27,18,11,-100,62,43,27,0.00,40.00,15,6,23,0.00
2014-2-23,50,38,31,18,16,12,58,42,21,0.00,40.00,12,5,19,0.00
2014-2-24,53,43,37,20,16,13,40,33,22,0.00,40.00,9,5,14,0.00
2014-2-25,55,44,37,31,21,15,68,40,25,0.00,40.00,11,5,16,0.00
2014-2-26,54,43,33,32,27,16,81,56,23,0.00,40.00,11,4,20,0.00
2014-2-27,46,39,33,39,33,20,104,83,34,0.00,40.00,26,14,48,0.00
2014-2-28,42,38,30,38,31,23,104,76,47,0.00,40.00,16,7,27,0.00
2014-3-1,41,36,34,40,27,-100,97,78,58,0.00,40.00,30,18,81,0.00
2014-3-2,45,38,30,31,28,25,97,70,46,0.00,40.00,16,8,28,0.00
2014-3-3,48,40,34,33,30,25,95,69,46,0.00,40.00,14,9,24,0.00
2014-3-4,45,39,34,37,32,25,104,74,44,0.00,40.00,16,8,24,0.00
2014-3-5,50,45,38,32,23,16,77,42,25,0.00,40.00,13,7,20,0.00
2014-3-6,50,45,36,37,20,8,100,32,20,0.00,40.00,21,13,32,0.00
2014-3-7,39,36,33,36,25,21,88,61,51,0.00,40.00,12,6,24,0.00
2014-3-8,45,37,33,30,20,-100,69,58,49,0.00,40.00,7,4,12,0.00
2014-3-9,55,47,34,27,20,14,73,37,20,0.00,40.00,14,9,22,0.00
2014-3-10,55,46,34,27,16,3,73,35,15,0.00,40.00,27,15,50,0.00
2014-3-11,34,30,27,26,24,19,86,76,62,0.00,40.00,17,8,26,0.00
2014-3-12,43,36,31,21,15,5,62,43,20,0.00,40.00,10,6,15,0.00
2014-3-13,50,42,29,21,17,12,53,36,22,0.00,40.00,9,5,15,0.00
2014-3-14,53,41,29,34,15,6,88,36,15,0.00,40.00,14,5,29,0.00
2014-3-15,44,37,34,26,12,-100,66,41,22,0.00,40.00,19,10,31,0.00
2014-3-16,54,40,30,18,11,-100,46,32,22,0.00,40.00,12,5,18,0.00
2014-3-17,50,40,30,22,10,1,56,29,17,0.00,40.00,23,14,38,0.00
2014-3-18,31,26,22,19,13,7,67,58,46,0.00,40.00,11,5,28,0.00
2014-3-19,47,38,19,12,6,-2,68,29,12,0.00,40.00,9,5,16,0.00
2014-3-20,54,43,35,13,2,-3,26,18,12,0.00,40.00,11,7,19,0.00
2014-3-21,48,37,30,22,12,-100,65,40,24,0.00,40.00,10,5,15,0.00
2014-3-22,45,35,32,33,19,-100,89,32,27,0.00,40.00,10,5,16,0.00
2014-3-23,51,37,28,15,9,-6,49,34,10,0.00,40.00,12,6,23,0.00
2014-3-24,53,44,35,15,10,4,38,24,18,0.00,40.00,10,4,14,0.00
2014-3-25,60,49,34,13,9,2,38,21,9,0.00,40.00,18,8,36,0.00
2014-3-26,52,40,33,36,23,6,103,37,15,0.00,40.00,19,10,53,0.00
2014-3-27,40,34,29,34,30,24,100,36,55,0.00,40.00,16,9,25,0.00
2014-3-28,47,37,28,27,21,16,76,55,31,0.00,40.00,12,4,18,0.00
2014-3-29,54,44,40,22,14,-100,44,33,25,0.00,40.00,29,14,59,0.00
2014-3-30,51,42,30,33,25,20,103,55,29,0.00,40.00,31,17,58,0.00
2014-3-31,42,33,24,34,22,11,104,68,27,0.00,40.00,8,4,25,0.00
2014-4-1,39,34,29,34,23,-100,100,43,47,0.00,40.00,21,11,45,0.00
2014-4-2,34,29,23,31,28,22,104,73,72,0.00,40.00,9,5,13,0.00
2014-4-3,40,36,23,27,24,20,96,63,52,0.00,40.00,8,4,12,0.00
2014-4-4,47,38,29,25,18,8,74,47,20,0.00,40.00,12,4,23,0.00
2014-4-5,41,36,34,36,29,22,104,60,50,0.00,40.00,9,4,19,0.00
2014-4-6,45,43,40,33,29,27,74,58,50,0.00,40.00,13,6,20,0.00
2014-4-13,40,38,36,29,22,18,73,53,45,0.00,40.00,16,9,33,0.00
2014-4-14,48,39,27,23,17,15,63,41,26,0.00,40.00,9,4,14,0.00
2014-4-15,61,51,36,27,12,4,52,22,12,0.00,40.00,16,11,26,0.00
2014-4-16,49,42,36,27,17,14,58,37,26,0.00,40.00,15,4,22,0.00
2014-4-17,63,50,34,27,20,13,47,30,22,0.00,40.00,15,5,25,0.00
2014-4-18,64,56,49,37,21,16,62,27,19,0.00,40.00,20,11,35,0.00
2014-4-19,50,33,48,35,-11,-100,56,37,54,0.00,40.00,6,4,10,0.00
2014-4-20,61,54,50,33,32,30,51,44,30,0.00,40.00,8,7,13,0.00
2014-4-21,67,61,46,29,25,17,30,25,20,0.00,40.00,11,8,24,0.00
2014-4-22,64,62,59,28,27,26,30,27,24,0.00,40.00,24,14,46,0.00
2014-4-23,44,40,32,30,15,10,90,39,24,0.00,40.00,9,7,15,0.00
2014-4-24,58,55,52,14,13,10,21,18,16,0.00,40.00,16,12,29,0.00
2014-4-25,58,57,54,27,19,11,34,23,16,0.00,40.00,30,19,49,0.00
2014-4-26,40,32,35,40,19,-100,100,60,96,0.00,40.00,18,10,27,0.00
2014-4-28,41,36,32,33,23,14,97,62,32,0.00,40.00,15,8,25,0.00
2014-4-29,43,37,28,25,17,8,67,46,23,0.00,40.00,13,6,28,0.00
2014-4-30,51,44,34,21,18,14,56,35,22,0.00,40.00,17,12,25,0.00
2014-5-1,59,53,43,21,18,14,29,24,18,0.00,40.00,10,6,16,0.00
2014-5-2,70,53,43,25,22,15,48,32,12,0.00,40.00,12,6,18,0.00
2014-5-3,74,71,55,17,15,13,22,11,9,0.00,40.00,20,16,34,0.00
2014-5-4,59,59,59,10,10,10,14,14,14,0.00,40.00,9,9,20,0.00
2014-5-5,67,63,57,25,12,6,29,13,11,0.00,40.00,19,15,42,0.00
2014-5-6,54,51,49,29,24,14,43,34,23,0.00,40.00,21,13,40,0.00
2014-5-13,53,52,51,18,15,14,27,23,20,0.00,40.00,9,6,12,0.00
2014-5-14,62,48,37,24,17,10,40,29,21,0.00,40.00,7,3,16,0.00
2014-5-15,70,58,45,30,26,22,46,29,16,0.00,40.00,9,4,14,0.00
2014-5-16,72,65,57,28,26,23,32,23,16,0.00,40.00,12,8,23,0.00
2014-5-17,74,62,52,26,13,-100,35,18,11,0.00,40.00,9,5,19,0.00
2014-5-18,73,64,57,25,20,16,26,19,11,0.00,40.00,14,8,22,0.00
2014-5-19,62,50,46,36,20,-100,64,38,27,0.00,40.00,13,6,19,0.00
2014-5-20,68,60,47,33,13,-100,49,19,11,0.00,40.00,19,10,44,0.00
2014-5-21,66,61,55,19,12,10,23,14,11,0.00,40.00,15,8,24,0.00
2014-5-22,71,61,44,23,14,-100,41,17,11,0.00,40.00,13,5,21,0.00
2014-5-23,58,56,51,42,41,39,65,58,47,0.00,40.00,7,3,13,0.00
2014-5-24,61,51,47,48,39,-100,99,69,45,0.00,40.00,11,5,19,0.00
2014-5-25,70,59,49,44,39,33,73,50,26,0.00,40.00,10,5,18,0.00
2014-5-26,78,67,50,37,33,29,50,30,16,0.00,40.00,8,4,14,0.00
2014-5-27,82,72,59,33,25,16,31,18,8,0.00,40.00,13,6,20,0.00
2014-5-28,80,74,67,33,26,21,25,17,11,0.00,40.00,27,12,53,0.00
2014-5-29,74,65,54,39,33,18,49,31,12,0.00,40.00,13,7,27,0.00
2014-5-30,78,67,55,37,32,25,49,28,15,0.00,40.00,18,7,31,0.00
2014-5-31,78,70,61,32,19,10,28,15,8,0.00,40.00,23,11,51,0.00
2014-6-1,72,62,52,30,24,15,39,24,11,0.00,40.00,11,5,18,0.00
2014-6-2,80,68,54,29,19,9,30,17,6,0.00,40.00,22,9,44,0.00
2014-6-3,76,69,61,30,20,10,25,15,11,0.00,40.00,20,9,32,0.00
2014-6-10,79,70,61,30,25,22,27,19,12,0.00,40.00,25,9,49,0.00
2014-6-11,75,68,58,35,26,19,34,21,14,0.00,40.00,16,7,26,0.00
2014-6-12,81,70,56,29,25,18,26,18,11,0.00,40.00,18,10,50,0.00
2014-6-13,78,68,57,34,23,14,42,18,11,0.00,40.00,23,14,37,0.00
2014-6-14,62,53,48,32,21,-100,48,33,22,0.00,40.00,16,8,25,0.00
2014-6-15,70,58,49,31,24,13,44,30,11,0.00,40.00,19,7,31,0.00
2014-6-16,67,61,52,33,28,17,40,29,14,0.00,40.00,26,11,42,0.00
2014-6-17,50,42,34,45,40,34,103,72,64,0.00,40.00,13,5,20,0.00
2014-6-18,58,46,35,38,32,22,100,65,24,0.00,40.00,10,6,17,0.00
2014-6-19,69,60,44,35,31,29,60,35,23,0.00,40.00,10,5,17,0.00
2014-6-20,82,70,52,28,21,16,33,17,8,0.00,40.00,18,9,32,0.00
2014-6-21,78,72,64,29,20,17,20,14,10,0.00,40.00,17,10,31,0.00
2014-6-22,81,70,59,31,24,21,26,18,10,0.00,40.00,14,4,27,0.00
2014-6-23,79,74,68,34,30,27,28,19,14,0.00,40.00,11,5,19,0.00
2014-6-24,85,74,63,36,23,17,33,17,8,0.00,40.00,19,8,39,0.00
2014-6-25,83,77,67,25,23,20,16,13,10,0.00,40.00,18,13,37,0.00
2014-6-26,75,68,52,45,30,22,76,28,14,0.00,40.00,21,12,39,0.00
2014-6-27,68,58,49,49,43,34,96,62,29,0.00,40.00,9,5,20,0.00
2014-6-28,78,61,53,41,24,-100,61,33,13,0.00,40.00,12,5,26,0.00
2014-6-29,85,74,59,36,31,26,36,22,11,0.00,40.00,11,6,21,0.00
2014-6-30,76,68,61,39,32,15,45,27,13,0.00,40.00,10,6,16,0.00
2014-7-1,81,71,58,31,23,15,28,18,8,0.00,40.00,11,6,15,0.00
2014-7-2,84,74,61,28,27,26,28,18,12,0.00,40.00,13,6,17,0.00
2014-7-3,86,80,72,38,34,30,27,20,13,0.00,40.00,14,10,34,0.00
2014-7-4,83,78,73,42,36,31,26,22,15,0.00,40.00,17,11,27,0.00
2014-7-5,86,68,69,45,26,-100,41,26,14,0.00,40.00,19,12,29,0.00
2014-7-6,89,84,73,37,33,31,26,16,12,0.00,40.00,11,9,18,0.00
2014-7-7,90,83,73,43,30,26,33,15,11,0.00,40.00,15,9,28,0.00
2014-7-8,88,80,73,41,36,28,29,21,15,0.00,40.00,13,9,31,0.00
2014-7-10,78,72,60,59,50,47,97,49,34,0.00,40.00,13,9,22,0.00
2014-7-11,74,64,59,60,57,53,99,80,47,0.00,40.00,8,4,13,0.00
2014-7-12,84,69,64,55,46,45,69,42,25,0.00,40.00,9,5,16,0.00
2014-7-13,85,75,67,49,46,39,50,37,22,0.00,40.00,6,4,18,0.00
2014-7-14,90,83,72,44,38,31,33,21,12,0.00,40.00,9,5,19,0.00
2014-7-15,90,78,69,50,41,35,50,27,14,0.00,40.00,25,10,37,0.00
2014-7-16,82,74,62,50,43,35,66,36,19,0.00,40.00,15,9,22,0.00
2014-7-18,85,77,70,37,34,31,25,21,14,0.00,40.00,17,6,25,0.00
2014-7-19,85,71,68,40,34,35,34,23,16,0.00,40.00,16,6,24,0.00
2014-7-20,86,74,69,41,38,31,33,27,13,0.00,40.00,22,12,44,0.00
2014-7-21,83,76,68,35,29,22,25,19,11,0.00,40.00,21,15,33,0.00
2014-7-22,90,82,68,26,23,21,18,11,8,0.00,40.00,13,8,23,0.00
2014-7-23,91,83,74,39,31,25,21,15,12,0.00,40.00,23,10,44,0.00
2014-7-24,90,81,71,43,35,28,36,20,10,0.00,40.00,18,8,31,0.00
2014-7-25,87,78,67,45,39,30,39,25,14,0.00,40.00,18,12,29,0.00
2014-7-28,79,69,63,59,54,46,84,63,31,0.00,40.00,10,7,16,0.00
2014-7-29,71,65,59,60,56,52,100,75,52,0.00,40.00,12,6,27,0.00
2014-7-30,71,65,58,60,58,54,100,79,61,0.00,40.00,9,5,15,0.00
2014-7-31,74,57,59,55,45,41,82,62,32,0.00,40.00,8,4,18,0.00
2014-8-1,77,75,73,49,46,44,42,36,30,0.00,40.00,8,4,14,0.00
2014-8-2,79,74,70,46,43,40,35,32,30,0.00,40.00,5,3,13,0.00
2014-8-3,77,70,63,51,44,41,65,41,32,0.00,40.00,10,4,20,0.00
2014-8-4,76,70,66,55,51,48,63,52,38,0.00,40.00,16,9,32,0.00
2014-8-5,77,68,61,53,49,41,73,52,28,0.00,40.00,17,10,29,0.00
2014-8-6,78,67,56,50,46,35,79,49,20,0.00,40.00,9,5,19,0.00
2014-8-7,77,70,66,45,41,36,46,36,22,0.00,40.00,12,7,23,0.00
2014-8-8,75,73,72,45,40,38,33,29,28,0.00,40.00,10,7,13,0.00
2014-8-11,83,80,74,45,40,36,32,25,18,0.00,40.00,8,6,14,0.00
2014-8-12,81,73,63,52,47,43,67,42,27,0.00,40.00,19,9,28,0.00
2014-8-13,71,66,62,51,48,47,65,53,41,0.00,40.00,8,5,16,0.00
2014-8-14,78,72,64,56,49,42,68,47,27,0.00,40.00,19,14,29,0.00
2014-8-15,83,80,71,43,34,29,30,20,13,0.00,40.00,15,10,25,0.00
2014-8-16,79,72,66,34,32,30,30,23,16,0.00,40.00,12,8,17,0.00
2014-8-18,83,78,74,24,23,22,15,12,10,0.00,40.00,17,12,26,0.00